Weather History for Ozark, AL

Change the Weather History Date:

Friday, July 18, 2014

  Actual Average Record
Temperature  
Mean Temperature 76 °F -  
Max Temperature 86 °F 88 °F 102 °F (2000)
Min Temperature 66 °F 69 °F 66 °F (2014)
Cooling Degree Days 11    
Growing Degree Days 26 (Base 50)    
Moisture  
Dew Point 70 °F    
Average Humidity 78    
Maximum Humidity 96    
Minimum Humidity 56    
Precipitation  
Precipitation 0.19 in - - ()
Sea Level Pressure  
Sea Level Pressure 30.05 in    
Wind  
Wind Speed 4 mph (ESE)    
Max Wind Speed 10 mph    
Max Gust Speed -    
Visibility 9 miles    
Events Rain    
Averages and records for this station are not official NWS values.
T = Trace of Precipitation, MM = Missing Value Source: NWS Daily Summary

Daily Weather History Graph

Daily Weather History Graph

Search for Another Location

Airport:

Trip Planner

Search our weather history database for the weather conditions in past years. The results will help you decide how hot, cold, wet, or windy it might be!

Date:

Astronomy

Jul. 18, 2014 Rise Set
Actual Time 5:50 AM CDT 7:47 PM CDT
Civil Twilight 5:23 AM CDT 8:14 PM CDT
Nautical Twilight 4:50 AM CDT 8:47 PM CDT
Astronomical Twilight 4:15 AM CDT 9:21 PM CDT
Moon No Moon Rise 12:36 PM CDT (7/18)
Length of Visible Light 14h 50m
Length of Day
13h 56m
Waning Gibbous, 54% of the Moon is Illuminated
Jul 18
Waning Gibbous
Jul 18
Last Quarter
Jul 26
New
Aug 3
First Quarter
Aug 10
Full

Hourly Weather History & Observations

Time (CDT) Temp. Heat Index Dew Point Humidity Pressure Visibility Wind Dir Wind Speed Gust Speed Precip Events Conditions
12:58 AM 70.7 °F - 65.1 °F 82% 30.03 in 10.0 mi ENE 3.5 mph - N/A   Clear
1:58 AM 67.1 °F - 64.9 °F 93% 30.03 in 10.0 mi Calm Calm - N/A   Clear
2:58 AM 69.3 °F - 65.1 °F 87% 30.02 in 10.0 mi NNE 4.6 mph - N/A   Clear
3:58 AM 66.4 °F - 64.2 °F 93% 30.02 in 10.0 mi NE 5.8 mph - N/A   Clear
4:58 AM 67.1 °F - 63.9 °F 89% 30.04 in 10.0 mi NE 4.6 mph - N/A   Clear
5:58 AM 66.4 °F - 63.9 °F 92% 30.05 in 10.0 mi NNE 5.8 mph - N/A   Clear
6:58 AM 69.1 °F - 64.0 °F 84% 30.05 in 10.0 mi East 4.6 mph - N/A   Scattered Clouds
7:58 AM 70.9 °F - 64.8 °F 81% 30.07 in 10.0 mi ENE 4.6 mph - N/A   Clear
8:58 AM 73.2 °F - 66.0 °F 78% 30.08 in 10.0 mi East 4.6 mph - N/A   Partly Cloudy
9:58 AM 76.8 °F - 68.2 °F 75% 30.09 in 10.0 mi SE 2.3 mph - N/A   Partly Cloudy
10:58 AM 79.9 °F - 67.6 °F 66% 30.08 in 10.0 mi SSE 4.6 mph - 0.06 in   Scattered Clouds
11:58 AM 83.7 °F 87.0 °F 68.5 °F 60% 30.08 in 10.0 mi South 5.8 mph - N/A   Scattered Clouds
12:58 PM 84.7 °F 88.8 °F 69.4 °F 60% 30.06 in 10.0 mi Variable 3.5 mph - N/A   Mostly Cloudy
1:58 PM 86.2 °F 90.0 °F 68.7 °F 56% 30.06 in 10.0 mi Variable 2.3 mph - N/A   Scattered Clouds
2:34 PM 86.0 °F 90.4 °F 69.8 °F 58% 30.05 in 10.0 mi Variable 3.5 mph - N/A Rain Light Rain
2:39 PM 86.0 °F 90.4 °F 69.8 °F 58% 30.05 in 10.0 mi Variable 4.6 mph - N/A   Scattered Clouds
2:57 PM 86.0 °F 90.4 °F 69.8 °F 58% 30.05 in 10.0 mi South 4.6 mph - N/A   Light Drizzle
2:58 PM 85.5 °F 89.4 °F 69.1 °F 58% 30.05 in 10.0 mi SSE 4.6 mph - 0.00 in   Light Drizzle
3:04 PM 86.0 °F 90.4 °F 69.8 °F 58% 30.05 in 10.0 mi ESE 3.5 mph - N/A   Partly Cloudy
3:58 PM 85.1 °F 90.1 °F 70.7 °F 62% 30.04 in 10.0 mi South 6.9 mph - 0.00 in   Partly Cloudy
4:58 PM 83.7 °F 88.9 °F 71.6 °F 67% 30.03 in 10.0 mi SE 3.5 mph - N/A   Clear
5:58 PM 82.8 °F 88.4 °F 73.0 °F 72% 30.03 in 10.0 mi ESE 2.3 mph - N/A   Clear
6:58 PM 81.7 °F 87.6 °F 74.1 °F 78% 30.04 in 10.0 mi SE 2.3 mph - N/A   Clear
7:58 PM 80.2 °F 84.6 °F 73.2 °F 79% 30.05 in 10.0 mi SE 2.3 mph - N/A   Clear
8:46 PM 78.8 °F - 73.4 °F 83% 30.06 in 8.0 mi Calm Calm - N/A Rain Light Rain
8:58 PM 79.3 °F - 74.7 °F 86% 30.07 in 5.0 mi SSW 4.6 mph - 0.01 in Rain Rain
9:08 PM 78.8 °F - 75.2 °F 89% 30.05 in 2.0 mi ENE 2.3 mph - N/A Rain Rain
9:13 PM 77.0 °F - 75.2 °F 94% 30.05 in 3.0 mi ENE 1.2 mph - N/A Rain Rain
9:18 PM 77.0 °F - 75.2 °F 94% 30.05 in 4.0 mi ESE 1.2 mph - N/A Rain Rain
9:28 PM 77.0 °F - 75.2 °F 94% 30.05 in 6.0 mi SSE 3.5 mph - N/A Rain Light Rain
9:58 PM 76.8 °F - 75.0 °F 94% 30.05 in 6.0 mi SSE 10.4 mph - 0.11 in Rain Light Rain
10:23 PM 75.2 °F - 73.4 °F 94% 30.04 in 10.0 mi SSW 6.9 mph - N/A   Clear
10:58 PM 74.5 °F - 73.0 °F 95% 30.04 in 10.0 mi SSW 5.8 mph - 0.00 in   Clear
11:58 PM 72.5 °F - 71.4 °F 96% 30.04 in 10.0 mi South 5.8 mph - 0.01 in   Partly Cloudy